Year,Month,Day,Hour,Minute,Value (Times are PST for temperature in C)
2014,06,08,00,00,18.10
2014,06,08,00,01,18.10
2014,06,08,00,02,18.10
2014,06,08,00,03,18.00
2014,06,08,00,04,18.00
2014,06,08,00,05,18.00
2014,06,08,00,06,18.00
2014,06,08,00,07,17.90
2014,06,08,00,08,17.90
2014,06,08,00,09,17.90
2014,06,08,00,10,17.90
2014,06,08,00,11,17.90
2014,06,08,00,12,17.90
2014,06,08,00,13,17.90
2014,06,08,00,14,17.90
2014,06,08,00,15,17.80
2014,06,08,00,16,17.80
2014,06,08,00,17,17.80
2014,06,08,00,18,17.80
2014,06,08,00,19,17.80
2014,06,08,00,20,17.80
2014,06,08,00,21,17.80
2014,06,08,00,22,17.80
2014,06,08,00,23,17.70
2014,06,08,00,24,17.70
2014,06,08,00,25,17.70
2014,06,08,00,26,17.70
2014,06,08,00,27,17.70
2014,06,08,00,28,17.70
2014,06,08,00,29,17.70
2014,06,08,00,30,17.60
2014,06,08,00,31,17.60
2014,06,08,00,32,17.60
2014,06,08,00,33,17.60
2014,06,08,00,34,17.60
2014,06,08,00,35,17.50
2014,06,08,00,36,17.50
2014,06,08,00,37,17.50
2014,06,08,00,38,17.50
2014,06,08,00,39,17.40
2014,06,08,00,40,17.40
2014,06,08,00,41,17.40
2014,06,08,00,42,17.40
2014,06,08,00,43,17.40
2014,06,08,00,44,17.40
2014,06,08,00,45,17.40
2014,06,08,00,46,17.30
2014,06,08,00,47,17.30
2014,06,08,00,48,17.30
2014,06,08,00,49,17.30
2014,06,08,00,50,17.30
2014,06,08,00,51,17.20
2014,06,08,00,52,17.20
2014,06,08,00,53,17.20
2014,06,08,00,54,17.10
2014,06,08,00,55,17.10
2014,06,08,00,56,17.00
2014,06,08,00,57,16.90
2014,06,08,00,58,16.90
2014,06,08,00,59,16.80
2014,06,08,01,00,16.80
2014,06,08,01,01,16.80
2014,06,08,01,02,16.70
2014,06,08,01,03,16.70
2014,06,08,01,04,16.60
2014,06,08,01,05,16.60
2014,06,08,01,06,16.60
2014,06,08,01,07,16.50
2014,06,08,01,08,16.50
2014,06,08,01,09,16.50
2014,06,08,01,10,16.40
2014,06,08,01,11,16.40
2014,06,08,01,12,16.40
2014,06,08,01,13,16.30
2014,06,08,01,14,16.30
2014,06,08,01,15,16.30
2014,06,08,01,16,16.20
2014,06,08,01,17,16.20
2014,06,08,01,18,16.20
2014,06,08,01,19,16.20
2014,06,08,01,20,16.10
2014,06,08,01,21,16.10
2014,06,08,01,22,16.10
2014,06,08,01,23,16.10
2014,06,08,01,24,16.10
2014,06,08,01,25,16.10
2014,06,08,01,26,16.10
2014,06,08,01,27,16.10
2014,06,08,01,28,16.10
2014,06,08,01,29,16.10
2014,06,08,01,30,16.10
2014,06,08,01,31,16.10
2014,06,08,01,32,16.10
2014,06,08,01,33,16.10
2014,06,08,01,34,16.10
2014,06,08,01,35,16.10
2014,06,08,01,36,16.20
2014,06,08,01,37,16.20
2014,06,08,01,38,16.20
2014,06,08,01,39,16.20
2014,06,08,01,40,16.20
2014,06,08,01,41,16.20
2014,06,08,01,42,16.30
2014,06,08,01,43,16.30
2014,06,08,01,44,16.30
2014,06,08,01,45,16.30
2014,06,08,01,46,16.20
2014,06,08,01,47,16.20
2014,06,08,01,48,16.20
2014,06,08,01,49,16.20
2014,06,08,01,50,16.20
2014,06,08,01,51,16.20
2014,06,08,01,52,16.20
2014,06,08,01,53,16.10
2014,06,08,01,54,16.10
2014,06,08,01,55,16.10
2014,06,08,01,56,16.10
2014,06,08,01,57,16.00
2014,06,08,01,58,16.00
2014,06,08,01,59,15.90
2014,06,08,02,00,15.90
2014,06,08,02,01,15.90
2014,06,08,02,02,15.90
2014,06,08,02,03,15.80
2014,06,08,02,04,15.80
2014,06,08,02,05,15.80
2014,06,08,02,06,15.80
2014,06,08,02,07,15.70
2014,06,08,02,08,15.70
2014,06,08,02,09,15.70
2014,06,08,02,10,15.70
2014,06,08,02,11,15.70
2014,06,08,02,12,15.70
2014,06,08,02,13,15.60
2014,06,08,02,14,15.60
2014,06,08,02,15,15.60
2014,06,08,02,16,15.60
2014,06,08,02,17,15.60
2014,06,08,02,18,15.60
2014,06,08,02,19,15.50
2014,06,08,02,20,15.50
2014,06,08,02,21,15.50
2014,06,08,02,22,15.50
2014,06,08,02,23,15.40
2014,06,08,02,24,15.40
2014,06,08,02,25,15.40
2014,06,08,02,26,15.40
2014,06,08,02,27,15.40
2014,06,08,02,28,15.40
2014,06,08,02,29,15.40
2014,06,08,02,30,15.30
2014,06,08,02,31,15.30
2014,06,08,02,32,15.30
2014,06,08,02,33,15.30
2014,06,08,02,34,15.30
2014,06,08,02,35,15.30
2014,06,08,02,36,15.30
2014,06,08,02,37,15.20
2014,06,08,02,38,15.20
2014,06,08,02,39,15.20
2014,06,08,02,40,15.20
2014,06,08,02,41,15.20
2014,06,08,02,42,15.20
2014,06,08,02,43,15.20
2014,06,08,02,44,15.20
2014,06,08,02,45,15.20
2014,06,08,02,46,15.20
2014,06,08,02,47,15.20
2014,06,08,02,48,15.20
2014,06,08,02,49,15.20
2014,06,08,02,50,15.20
2014,06,08,02,51,15.20
2014,06,08,02,52,15.10
2014,06,08,02,53,15.10
2014,06,08,02,54,15.10
2014,06,08,02,55,15.10
2014,06,08,02,56,15.10
2014,06,08,02,57,15.10
2014,06,08,02,58,15.10
2014,06,08,02,59,15.10
2014,06,08,03,00,15.10
2014,06,08,03,01,15.10
2014,06,08,03,02,15.00
2014,06,08,03,03,15.10
2014,06,08,03,04,15.10
2014,06,08,03,05,15.10
2014,06,08,03,06,15.10
2014,06,08,03,07,15.10
2014,06,08,03,08,15.10
2014,06,08,03,09,15.10
2014,06,08,03,10,15.10
2014,06,08,03,11,15.10
2014,06,08,03,12,15.20
2014,06,08,03,13,15.20
2014,06,08,03,14,15.20
2014,06,08,03,15,15.20
2014,06,08,03,16,15.20
2014,06,08,03,17,15.20
2014,06,08,03,18,15.20
2014,06,08,03,19,15.30
2014,06,08,03,20,15.30
2014,06,08,03,21,15.30
2014,06,08,03,22,15.30
2014,06,08,03,23,15.30
2014,06,08,03,24,15.30
2014,06,08,03,25,15.30
2014,06,08,03,26,15.30
2014,06,08,03,27,15.30
2014,06,08,03,28,15.30
2014,06,08,03,29,15.30
2014,06,08,03,30,15.30
2014,06,08,03,31,15.30
2014,06,08,03,32,15.20
2014,06,08,03,33,15.20
2014,06,08,03,34,15.20
2014,06,08,03,35,15.20
2014,06,08,03,36,15.20
2014,06,08,03,37,15.20
2014,06,08,03,38,15.20
2014,06,08,03,39,15.20
2014,06,08,03,40,15.30
2014,06,08,03,41,15.30
2014,06,08,03,42,15.30
2014,06,08,03,43,15.30
2014,06,08,03,44,15.30
2014,06,08,03,45,15.30
2014,06,08,03,46,15.30
2014,06,08,03,47,15.30
2014,06,08,03,48,15.40
2014,06,08,03,49,15.40
2014,06,08,03,50,15.40
2014,06,08,03,51,15.50
2014,06,08,03,52,15.50
2014,06,08,03,53,15.50
2014,06,08,03,54,15.50
2014,06,08,03,55,15.60
2014,06,08,03,56,15.60
2014,06,08,03,57,15.60
2014,06,08,03,58,15.60
2014,06,08,03,59,15.60
2014,06,08,04,00,15.60
2014,06,08,04,01,15.60
2014,06,08,04,02,15.60
2014,06,08,04,03,15.60
2014,06,08,04,04,15.60
2014,06,08,04,05,15.60
2014,06,08,04,06,15.60
2014,06,08,04,07,15.60
2014,06,08,04,08,15.60
2014,06,08,04,09,15.60
2014,06,08,04,10,15.60
2014,06,08,04,11,15.60
2014,06,08,04,12,15.60
2014,06,08,04,13,15.60
2014,06,08,04,14,15.50
2014,06,08,04,15,15.50
2014,06,08,04,16,15.50
2014,06,08,04,17,15.50
2014,06,08,04,18,15.40
2014,06,08,04,19,15.40
2014,06,08,04,20,15.40
2014,06,08,04,21,15.40
2014,06,08,04,22,15.40
2014,06,08,04,23,15.30
2014,06,08,04,24,15.30
2014,06,08,04,25,15.30
2014,06,08,04,26,15.30
2014,06,08,04,27,15.30
2014,06,08,04,28,15.30
2014,06,08,04,29,15.30
2014,06,08,04,30,15.30
2014,06,08,04,31,15.30
2014,06,08,04,32,15.30
2014,06,08,04,33,15.30
2014,06,08,04,34,15.30
2014,06,08,04,35,15.30
2014,06,08,04,36,15.30
2014,06,08,04,37,15.30
2014,06,08,04,38,15.30
2014,06,08,04,39,15.30
2014,06,08,04,40,15.30
2014,06,08,04,41,15.30
2014,06,08,04,42,15.30
2014,06,08,04,43,15.30
2014,06,08,04,44,15.30
2014,06,08,04,45,15.30
2014,06,08,04,46,15.30
2014,06,08,04,47,15.30
2014,06,08,04,48,15.30
2014,06,08,04,49,15.30
2014,06,08,04,50,15.30
2014,06,08,04,51,15.30
2014,06,08,04,52,15.30
2014,06,08,04,53,15.30
2014,06,08,04,54,15.30
2014,06,08,04,55,15.30
2014,06,08,04,56,15.30
2014,06,08,04,57,15.30
2014,06,08,04,58,15.30
2014,06,08,04,59,15.30
2014,06,08,05,00,15.30
2014,06,08,05,01,15.30
2014,06,08,05,02,15.30
2014,06,08,05,03,15.30
2014,06,08,05,04,15.30
2014,06,08,05,05,15.30
2014,06,08,05,06,15.30
2014,06,08,05,07,15.30
2014,06,08,05,08,15.30
2014,06,08,05,09,15.30
2014,06,08,05,10,15.30
2014,06,08,05,11,15.30
2014,06,08,05,12,15.30
2014,06,08,05,13,15.30
2014,06,08,05,14,15.20
2014,06,08,05,15,15.20
2014,06,08,05,16,15.20
2014,06,08,05,17,15.20
2014,06,08,05,18,15.20
2014,06,08,05,19,15.10
2014,06,08,05,20,15.10
2014,06,08,05,21,15.10
2014,06,08,05,22,15.10
2014,06,08,05,23,15.00
2014,06,08,05,24,15.00
2014,06,08,05,25,15.00
2014,06,08,05,26,15.00
2014,06,08,05,27,15.00
2014,06,08,05,28,15.00
2014,06,08,05,29,15.00
2014,06,08,05,30,15.00
2014,06,08,05,31,15.00
2014,06,08,05,32,15.00
2014,06,08,05,33,15.00
2014,06,08,05,34,15.00
2014,06,08,05,35,15.00
2014,06,08,05,36,15.00
2014,06,08,05,37,15.00
2014,06,08,05,38,14.90
2014,06,08,05,39,14.90
2014,06,08,05,40,14.90
2014,06,08,05,41,14.80
2014,06,08,05,42,14.80
2014,06,08,05,43,14.80
2014,06,08,05,44,14.80
2014,06,08,05,45,14.80
2014,06,08,05,46,14.80
2014,06,08,05,47,14.80
2014,06,08,05,48,14.80
2014,06,08,05,49,14.80
2014,06,08,05,50,14.70
2014,06,08,05,51,14.70
2014,06,08,05,52,14.70
2014,06,08,05,53,14.70
2014,06,08,05,54,14.70
2014,06,08,05,55,14.70
2014,06,08,05,56,14.70
2014,06,08,05,57,14.70
2014,06,08,05,58,14.70
2014,06,08,05,59,14.70
2014,06,08,06,00,14.70
2014,06,08,06,01,14.70
2014,06,08,06,02,14.70
2014,06,08,06,03,14.70
2014,06,08,06,04,14.70
2014,06,08,06,05,14.70
2014,06,08,06,06,14.70
2014,06,08,06,07,14.70
2014,06,08,06,08,14.70
2014,06,08,06,09,14.70
2014,06,08,06,10,14.70
2014,06,08,06,11,14.70
2014,06,08,06,12,14.70
2014,06,08,06,13,14.70
2014,06,08,06,14,14.70
2014,06,08,06,15,14.70
2014,06,08,06,16,14.70
2014,06,08,06,17,14.70
2014,06,08,06,18,14.70
2014,06,08,06,19,14.70
2014,06,08,06,20,14.70
2014,06,08,06,21,14.80
2014,06,08,06,22,14.80
2014,06,08,06,23,14.80
2014,06,08,06,24,14.80
2014,06,08,06,25,14.80
2014,06,08,06,26,14.80
2014,06,08,06,27,14.80
2014,06,08,06,28,14.80
2014,06,08,06,29,14.80
2014,06,08,06,30,14.80
2014,06,08,06,31,14.80
2014,06,08,06,32,14.80
2014,06,08,06,33,14.80
2014,06,08,06,34,14.80
2014,06,08,06,35,14.80
2014,06,08,06,36,14.80
2014,06,08,06,37,14.80
2014,06,08,06,38,14.80
2014,06,08,06,39,14.80
2014,06,08,06,40,14.80
2014,06,08,06,41,14.80
2014,06,08,06,42,14.80
2014,06,08,06,43,14.80
2014,06,08,06,44,14.80
2014,06,08,06,45,14.80
2014,06,08,06,46,14.80
2014,06,08,06,47,14.80
2014,06,08,06,48,14.80
2014,06,08,06,49,14.80
2014,06,08,06,50,14.80
2014,06,08,06,51,14.80
2014,06,08,06,52,14.80
2014,06,08,06,53,14.80
2014,06,08,06,54,14.80
2014,06,08,06,55,14.80
2014,06,08,06,56,14.80
2014,06,08,06,57,14.80
2014,06,08,06,58,14.80
2014,06,08,06,59,14.90
2014,06,08,07,00,14.90
2014,06,08,07,01,14.90
2014,06,08,07,02,14.90
2014,06,08,07,03,14.90
2014,06,08,07,04,15.00
2014,06,08,07,05,15.00
2014,06,08,07,06,15.00
2014,06,08,07,07,15.00
2014,06,08,07,08,15.00
2014,06,08,07,09,15.00
2014,06,08,07,10,15.00
2014,06,08,07,11,15.00
2014,06,08,07,12,15.00
2014,06,08,07,13,15.00
2014,06,08,07,14,15.00
2014,06,08,07,15,15.00
2014,06,08,07,16,15.00
2014,06,08,07,17,15.00
2014,06,08,07,18,15.10
2014,06,08,07,19,15.10
2014,06,08,07,20,15.10
2014,06,08,07,21,15.10
2014,06,08,07,22,15.20
2014,06,08,07,23,15.20
2014,06,08,07,24,15.20
2014,06,08,07,25,15.20
2014,06,08,07,26,15.30
2014,06,08,07,27,15.30
2014,06,08,07,28,15.30
2014,06,08,07,29,15.30
2014,06,08,07,30,15.40
2014,06,08,07,31,15.40
2014,06,08,07,32,15.40
2014,06,08,07,33,15.40
2014,06,08,07,34,15.40
2014,06,08,07,35,15.50
2014,06,08,07,36,15.50
2014,06,08,07,37,15.50
2014,06,08,07,38,15.60
2014,06,08,07,39,15.60
2014,06,08,07,40,15.60
2014,06,08,07,41,15.70
2014,06,08,07,42,15.70
2014,06,08,07,43,15.80
2014,06,08,07,44,15.80
2014,06,08,07,45,15.80
2014,06,08,07,46,15.80
2014,06,08,07,47,15.90
2014,06,08,07,48,15.90
2014,06,08,07,49,15.90
2014,06,08,07,50,15.90
2014,06,08,07,51,15.90
2014,06,08,07,52,15.90
2014,06,08,07,53,15.90
2014,06,08,07,54,15.90
2014,06,08,07,55,15.90
2014,06,08,07,56,16.00
2014,06,08,07,57,16.00
2014,06,08,07,58,16.00
2014,06,08,07,59,16.00
2014,06,08,08,00,16.00
2014,06,08,08,01,16.00
2014,06,08,08,02,16.10
2014,06,08,08,03,16.10
2014,06,08,08,04,16.10
2014,06,08,08,05,16.20
2014,06,08,08,06,16.20
2014,06,08,08,07,16.20
2014,06,08,08,08,16.20
2014,06,08,08,09,16.30
2014,06,08,08,10,16.30
2014,06,08,08,11,16.40
2014,06,08,08,12,16.40
2014,06,08,08,13,16.50
2014,06,08,08,14,16.50
2014,06,08,08,15,16.60
2014,06,08,08,16,16.70
2014,06,08,08,17,16.70
2014,06,08,08,18,16.80
2014,06,08,08,19,16.80
2014,06,08,08,20,16.90
2014,06,08,08,21,16.90
2014,06,08,08,22,17.00
2014,06,08,08,23,17.10
2014,06,08,08,24,17.10
2014,06,08,08,25,17.10
2014,06,08,08,26,17.20
2014,06,08,08,27,17.20
2014,06,08,08,28,17.20
2014,06,08,08,29,17.30
2014,06,08,08,30,17.30
2014,06,08,08,31,17.30
2014,06,08,08,32,17.30
2014,06,08,08,33,17.30
2014,06,08,08,34,17.30
2014,06,08,08,35,17.30
2014,06,08,08,36,17.30
2014,06,08,08,37,17.30
2014,06,08,08,38,17.30
2014,06,08,08,39,17.30
2014,06,08,08,40,17.30
2014,06,08,08,41,17.30
2014,06,08,08,42,17.30
2014,06,08,08,43,17.40
2014,06,08,08,44,17.40
2014,06,08,08,45,17.40
2014,06,08,08,46,17.40
2014,06,08,08,47,17.40
2014,06,08,08,48,17.50
2014,06,08,08,49,17.50
2014,06,08,08,50,17.60
2014,06,08,08,51,17.60
2014,06,08,08,52,17.60
2014,06,08,08,53,17.60
2014,06,08,08,54,17.60
2014,06,08,08,55,17.60
2014,06,08,08,56,17.60
2014,06,08,08,57,17.60
2014,06,08,08,58,17.60
2014,06,08,08,59,17.70
2014,06,08,09,00,17.80
2014,06,08,09,01,17.80
2014,06,08,09,02,17.90
2014,06,08,09,03,18.00
2014,06,08,09,04,18.00
2014,06,08,09,05,18.10
2014,06,08,09,06,18.10
2014,06,08,09,07,18.10
2014,06,08,09,08,18.10
2014,06,08,09,09,18.10
2014,06,08,09,10,18.10
2014,06,08,09,11,18.10
2014,06,08,09,12,18.10
2014,06,08,09,13,18.00
2014,06,08,09,14,18.00
2014,06,08,09,15,18.00
2014,06,08,09,16,18.00
2014,06,08,09,17,18.00
2014,06,08,09,18,18.10
2014,06,08,09,19,18.10
2014,06,08,09,20,18.10
2014,06,08,09,21,18.10
2014,06,08,09,22,18.10
2014,06,08,09,23,18.10
2014,06,08,09,24,18.10
2014,06,08,09,25,18.10
2014,06,08,09,26,18.10
2014,06,08,09,27,18.10
2014,06,08,09,28,18.20
2014,06,08,09,29,18.20
2014,06,08,09,30,18.30
2014,06,08,09,31,18.40
2014,06,08,09,32,18.40
2014,06,08,09,33,18.50
2014,06,08,09,34,18.60
2014,06,08,09,35,18.60
2014,06,08,09,36,18.60
2014,06,08,09,37,18.60
2014,06,08,09,38,18.60
2014,06,08,09,39,18.60
2014,06,08,09,40,18.60
2014,06,08,09,41,18.60
2014,06,08,09,42,18.70
2014,06,08,09,43,18.70
2014,06,08,09,44,18.80
2014,06,08,09,45,18.80
2014,06,08,09,46,18.90
2014,06,08,09,47,19.00
2014,06,08,09,48,19.10
2014,06,08,09,49,19.20
2014,06,08,09,50,19.20
2014,06,08,09,51,19.40
2014,06,08,09,52,19.50
2014,06,08,09,53,19.60
2014,06,08,09,54,19.70
2014,06,08,09,55,19.70
2014,06,08,09,56,19.70
2014,06,08,09,57,19.70
2014,06,08,09,58,19.70
2014,06,08,09,59,19.70
2014,06,08,10,00,19.80
2014,06,08,10,01,19.80
2014,06,08,10,02,19.90
2014,06,08,10,03,20.00
2014,06,08,10,04,20.00
2014,06,08,10,05,20.00
2014,06,08,10,06,20.00
2014,06,08,10,07,20.00
2014,06,08,10,08,20.10
2014,06,08,10,09,20.10
2014,06,08,10,10,20.20
2014,06,08,10,11,20.30
2014,06,08,10,12,20.40
2014,06,08,10,13,20.40
2014,06,08,10,14,20.50
2014,06,08,10,15,20.50
2014,06,08,10,16,20.60
2014,06,08,10,17,20.60
2014,06,08,10,18,20.60
2014,06,08,10,19,20.60
2014,06,08,10,20,20.60
2014,06,08,10,49,21.90
2014,06,08,10,50,21.90
2014,06,08,10,51,21.90
2014,06,08,10,52,21.90
2014,06,08,10,53,22.00
2014,06,08,10,54,22.10
2014,06,08,10,55,22.10
2014,06,08,10,56,22.20
2014,06,08,10,57,22.40
2014,06,08,10,58,22.50
2014,06,08,10,59,22.50
2014,06,08,11,00,22.50
2014,06,08,11,01,22.50
2014,06,08,11,02,22.40
2014,06,08,11,03,22.30
2014,06,08,11,04,22.30
2014,06,08,11,05,22.20
2014,06,08,11,06,22.20
2014,06,08,11,07,22.10
2014,06,08,11,08,22.10
2014,06,08,11,09,22.10
2014,06,08,11,10,22.10
2014,06,08,11,11,22.10
2014,06,08,11,12,22.10
2014,06,08,11,13,22.10
2014,06,08,11,14,22.10
2014,06,08,11,15,22.20
2014,06,08,11,16,22.20
2014,06,08,11,17,22.30
2014,06,08,11,18,22.30
2014,06,08,11,19,22.30
2014,06,08,11,20,22.30
2014,06,08,11,21,22.30
2014,06,08,11,22,22.30
2014,06,08,11,23,22.20
2014,06,08,11,24,22.30
2014,06,08,11,25,22.30
2014,06,08,11,26,22.30
2014,06,08,11,27,22.10
2014,06,08,11,28,22.00
2014,06,08,11,29,21.90
2014,06,08,11,30,21.90
2014,06,08,11,31,21.90
2014,06,08,11,32,21.90
2014,06,08,11,33,21.90
2014,06,08,11,34,21.90
2014,06,08,11,35,21.80
2014,06,08,11,36,21.80
2014,06,08,11,37,21.80
2014,06,08,11,38,21.80
2014,06,08,11,39,21.80
2014,06,08,11,40,21.90
2014,06,08,11,41,22.00
2014,06,08,11,42,22.10
2014,06,08,11,43,22.10
2014,06,08,11,44,22.20
2014,06,08,11,45,22.10
2014,06,08,11,46,22.00
2014,06,08,11,47,21.80
2014,06,08,11,48,21.70
2014,06,08,11,49,21.60
2014,06,08,11,50,21.60
2014,06,08,11,51,21.60
2014,06,08,11,52,21.60
2014,06,08,11,53,21.60
2014,06,08,11,54,21.50
2014,06,08,11,55,21.40
2014,06,08,11,56,21.50
2014,06,08,11,57,21.60
2014,06,08,11,58,21.70
2014,06,08,11,59,21.80
2014,06,08,12,00,21.90
2014,06,08,12,01,21.90
2014,06,08,12,02,22.00
2014,06,08,12,03,22.00
2014,06,08,12,04,21.90
2014,06,08,12,05,21.80
2014,06,08,12,06,21.90
2014,06,08,12,07,21.90
2014,06,08,12,08,21.90
2014,06,08,12,09,21.90
2014,06,08,12,10,21.90
2014,06,08,12,11,21.90
2014,06,08,12,12,21.90
2014,06,08,12,13,21.90
2014,06,08,12,14,21.90
2014,06,08,12,15,21.90
2014,06,08,12,16,21.90
2014,06,08,12,17,22.00
2014,06,08,12,18,22.10
2014,06,08,12,19,22.10
2014,06,08,12,20,22.00
2014,06,08,12,21,21.90
2014,06,08,12,22,21.80
2014,06,08,12,23,21.70
2014,06,08,12,24,21.60
2014,06,08,12,25,21.50
2014,06,08,12,26,21.50
2014,06,08,12,27,21.40
2014,06,08,12,28,21.30
2014,06,08,12,29,21.20
2014,06,08,12,30,21.20
2014,06,08,12,31,21.20
2014,06,08,12,32,21.10
2014,06,08,12,33,21.10
2014,06,08,12,34,21.10
2014,06,08,12,35,21.10
2014,06,08,12,36,21.00
2014,06,08,12,37,21.00
2014,06,08,12,38,20.90
2014,06,08,12,39,20.90
2014,06,08,12,40,20.90
2014,06,08,12,41,20.80
2014,06,08,12,42,20.90
2014,06,08,12,43,20.90
2014,06,08,12,44,20.90
2014,06,08,12,45,20.90
2014,06,08,12,46,21.00
2014,06,08,12,47,21.10
2014,06,08,12,48,21.20
2014,06,08,12,49,21.10
2014,06,08,12,50,21.10
2014,06,08,12,51,21.20
2014,06,08,12,52,21.30
2014,06,08,12,53,21.30
2014,06,08,12,54,21.30
2014,06,08,12,55,21.40
2014,06,08,12,56,21.40
2014,06,08,12,57,21.60
2014,06,08,12,58,21.60
2014,06,08,12,59,21.70
2014,06,08,13,00,21.70
2014,06,08,13,01,21.70
2014,06,08,13,02,21.60
2014,06,08,13,03,21.60
2014,06,08,13,04,21.50
2014,06,08,13,05,21.40
2014,06,08,13,06,21.40
2014,06,08,13,07,21.40
2014,06,08,13,08,21.50
2014,06,08,13,09,21.60
2014,06,08,13,10,21.70
2014,06,08,13,11,21.70
2014,06,08,13,12,21.80
2014,06,08,13,13,21.80
2014,06,08,13,14,21.70
2014,06,08,13,15,21.80
2014,06,08,13,16,21.80
2014,06,08,13,17,21.80
2014,06,08,13,18,21.80
2014,06,08,13,19,21.60
2014,06,08,13,20,21.40
2014,06,08,13,21,21.30
2014,06,08,13,22,21.20
2014,06,08,13,23,21.10
2014,06,08,13,24,21.10
2014,06,08,13,25,21.10
2014,06,08,13,26,21.10
2014,06,08,13,27,21.10
2014,06,08,13,28,21.10
2014,06,08,13,29,21.10
2014,06,08,13,30,21.10
2014,06,08,13,31,21.20
2014,06,08,13,32,21.30
2014,06,08,13,33,21.40
2014,06,08,13,34,21.40
2014,06,08,13,35,21.50
2014,06,08,13,36,21.60
2014,06,08,13,37,21.60
2014,06,08,13,38,21.70
2014,06,08,13,39,21.70
2014,06,08,13,40,21.70
2014,06,08,13,41,21.80
2014,06,08,13,42,21.80
2014,06,08,13,43,21.90
2014,06,08,13,44,22.00
2014,06,08,13,45,22.10
2014,06,08,13,46,22.10
2014,06,08,13,47,22.00
2014,06,08,13,48,22.00
2014,06,08,13,49,21.90
2014,06,08,13,50,21.90
2014,06,08,13,51,21.90
2014,06,08,13,52,21.90
2014,06,08,13,53,21.90
2014,06,08,13,54,21.90
2014,06,08,13,55,21.90
2014,06,08,13,56,21.90
2014,06,08,13,57,21.80
2014,06,08,13,58,21.70
2014,06,08,13,59,21.70
2014,06,08,14,00,21.60
2014,06,08,14,01,21.50
2014,06,08,14,02,21.50
2014,06,08,14,03,21.60
2014,06,08,14,04,21.70
2014,06,08,14,05,21.70
2014,06,08,14,06,21.80
2014,06,08,14,07,21.80
2014,06,08,14,08,21.80
2014,06,08,14,09,21.80
2014,06,08,14,10,21.80
2014,06,08,14,11,21.80
2014,06,08,14,12,21.80
2014,06,08,14,13,21.80
2014,06,08,14,14,21.90
2014,06,08,14,15,21.90
2014,06,08,14,16,21.80
2014,06,08,14,17,21.80
2014,06,08,14,18,21.90
2014,06,08,14,19,21.80
2014,06,08,14,20,21.70
2014,06,08,14,21,21.70
2014,06,08,14,22,21.60
2014,06,08,14,23,21.60
2014,06,08,14,24,21.50
2014,06,08,14,25,21.40
2014,06,08,14,26,21.50
2014,06,08,14,27,21.60
2014,06,08,14,28,21.80
2014,06,08,14,29,21.90
2014,06,08,14,30,22.00
2014,06,08,14,31,22.10
2014,06,08,14,32,22.20
2014,06,08,14,33,22.30
2014,06,08,14,34,22.20
2014,06,08,14,35,22.20
2014,06,08,14,36,22.20
2014,06,08,14,37,22.20
2014,06,08,14,38,22.10
2014,06,08,14,39,22.10
2014,06,08,14,40,22.10
2014,06,08,14,41,22.20
2014,06,08,14,42,22.20
2014,06,08,14,43,22.20
2014,06,08,14,44,22.20
2014,06,08,14,45,22.20
2014,06,08,14,46,22.20
2014,06,08,14,47,22.20
2014,06,08,14,48,22.20
2014,06,08,14,49,22.30
2014,06,08,14,50,22.30
2014,06,08,14,51,22.30
2014,06,08,14,52,22.40
2014,06,08,14,53,22.40
2014,06,08,14,54,22.40
2014,06,08,14,55,22.40
2014,06,08,14,56,22.40
2014,06,08,14,57,22.30
2014,06,08,14,58,22.30
2014,06,08,14,59,22.20
2014,06,08,15,00,22.20
2014,06,08,15,01,22.20
2014,06,08,15,02,22.30
2014,06,08,15,03,22.10
2014,06,08,15,04,22.00
2014,06,08,15,05,22.00
2014,06,08,15,06,21.90
2014,06,08,15,07,21.90
2014,06,08,15,08,22.00
2014,06,08,15,09,22.10
2014,06,08,15,10,22.20
2014,06,08,15,11,22.20
2014,06,08,15,12,22.20
2014,06,08,15,13,22.20
2014,06,08,15,14,22.20
2014,06,08,15,15,22.20
2014,06,08,15,16,22.30
2014,06,08,15,17,22.40
2014,06,08,15,18,22.40
2014,06,08,15,19,22.40
2014,06,08,15,20,22.40
2014,06,08,15,21,22.40
2014,06,08,15,22,22.40
2014,06,08,15,23,22.40
2014,06,08,15,24,22.30
2014,06,08,15,25,22.30
2014,06,08,15,26,22.20
2014,06,08,15,27,22.20
2014,06,08,15,28,22.20
2014,06,08,15,29,22.30
2014,06,08,15,30,22.40
2014,06,08,15,31,22.50
2014,06,08,15,32,22.50
2014,06,08,15,33,22.40
2014,06,08,15,34,22.30
2014,06,08,15,35,22.30
2014,06,08,15,36,22.20
2014,06,08,15,37,22.20
2014,06,08,15,38,22.20
2014,06,08,15,39,22.30
2014,06,08,15,40,22.40
2014,06,08,15,41,22.40
2014,06,08,15,42,22.40
2014,06,08,15,43,22.30
2014,06,08,15,44,22.30
2014,06,08,15,45,22.20
2014,06,08,15,46,22.00
2014,06,08,15,47,21.90
2014,06,08,15,48,22.00
2014,06,08,15,49,22.00
2014,06,08,15,50,21.90
2014,06,08,15,51,21.80
2014,06,08,15,52,21.90
2014,06,08,15,53,21.90
2014,06,08,15,54,21.90
2014,06,08,15,55,21.90
2014,06,08,15,56,21.90
2014,06,08,15,57,21.90
2014,06,08,15,58,21.80
2014,06,08,15,59,21.80
2014,06,08,16,00,21.90
2014,06,08,16,01,22.00
2014,06,08,16,02,22.10
2014,06,08,16,03,22.10
2014,06,08,16,04,22.20
2014,06,08,16,05,22.20
2014,06,08,16,06,22.20
2014,06,08,16,07,22.20
2014,06,08,16,08,22.20
2014,06,08,16,09,22.20
2014,06,08,16,10,22.20
2014,06,08,16,11,22.20
2014,06,08,16,12,22.20
2014,06,08,16,13,22.20
2014,06,08,16,14,22.20
2014,06,08,16,15,22.20
2014,06,08,16,16,22.10
2014,06,08,16,17,22.10
2014,06,08,16,18,22.10
2014,06,08,16,19,22.10
2014,06,08,16,20,22.10
2014,06,08,16,21,22.20
2014,06,08,16,22,22.20
2014,06,08,16,23,22.30
2014,06,08,16,24,22.40
2014,06,08,16,25,22.50
2014,06,08,16,26,22.60
2014,06,08,16,27,22.70
2014,06,08,16,28,22.80
2014,06,08,16,29,22.80
2014,06,08,16,30,22.80
2014,06,08,16,31,22.80
2014,06,08,16,32,22.80
2014,06,08,16,33,22.80
2014,06,08,16,34,22.90
2014,06,08,16,35,22.90
2014,06,08,16,36,23.00
2014,06,08,16,37,23.00
2014,06,08,16,38,23.10
2014,06,08,16,39,23.10
2014,06,08,16,40,23.10
2014,06,08,16,41,23.20
2014,06,08,16,42,23.20
2014,06,08,16,43,23.20
2014,06,08,16,44,23.20
2014,06,08,16,45,23.10
2014,06,08,16,46,23.10
2014,06,08,16,47,23.10
2014,06,08,16,48,23.10
2014,06,08,16,49,23.10
2014,06,08,16,50,23.20
2014,06,08,16,51,23.30
2014,06,08,17,18,25.60
2014,06,08,17,19,25.70
2014,06,08,17,20,25.80
2014,06,08,17,21,25.80
2014,06,08,17,22,25.80
2014,06,08,17,23,25.80
2014,06,08,17,24,25.80
2014,06,08,17,25,25.80
2014,06,08,17,26,25.70
2014,06,08,17,27,25.70
2014,06,08,17,28,25.60
2014,06,08,17,29,25.50
2014,06,08,17,30,25.40
2014,06,08,17,31,25.40
2014,06,08,17,32,25.30
2014,06,08,17,33,25.20
2014,06,08,17,34,25.10
2014,06,08,17,35,25.00
2014,06,08,17,36,25.00
2014,06,08,17,37,24.90
2014,06,08,17,38,24.80
2014,06,08,17,39,24.70
2014,06,08,17,40,24.60
2014,06,08,17,41,24.50
2014,06,08,17,42,24.50
2014,06,08,17,43,24.40
2014,06,08,17,44,24.40
2014,06,08,17,45,24.40
2014,06,08,17,46,24.40
2014,06,08,17,47,24.50
2014,06,08,17,48,24.60
2014,06,08,17,49,24.70
2014,06,08,17,50,24.80
2014,06,08,17,51,24.90
2014,06,08,17,52,25.00
2014,06,08,17,53,25.10
2014,06,08,17,54,25.10
2014,06,08,17,55,25.10
2014,06,08,17,56,25.10
2014,06,08,17,57,25.00
2014,06,08,17,58,24.80
2014,06,08,17,59,24.80
2014,06,08,18,00,24.80
2014,06,08,18,01,24.70
2014,06,08,18,02,24.70
2014,06,08,18,03,24.70
2014,06,08,18,04,24.60
2014,06,08,18,05,24.50
2014,06,08,18,06,24.40
2014,06,08,18,07,24.40
2014,06,08,18,08,24.30
2014,06,08,18,09,24.20
2014,06,08,18,10,24.10
2014,06,08,18,11,24.00
2014,06,08,18,12,23.90
2014,06,08,18,13,23.80